Location: ???
(35.5616°N, 139.7977°E)
Time: 01:46:03
(UTC+00:00)

Lacrosse 5 rocket - Pass Details

Date: 17 November 2025
Orbit: 406 x 493 km, 57.0° (Epoch: 09 December)

Event Time Altitude Azimuth Distance (km) Brightness Sun altitude
Exits shadow 20:24:32 - 340° (NNW) 1,869 3.7 -11.3°
Reaches altitude 10° 20:25:39 10° 350° (N) 1,495 3.3 -11.1°
Maximum altitude 20:28:12 20° 41° (NE) 1,013 3.0 -10.6°
Drops below altitude 10° 20:30:43 10° 91° (E) 1,468 4.9 -10.1°
Sets 20:33:08 0° 109° (ESE) 2,319 6.9 -9.6°
